FW2795 Weather Reports


Display with metric or nautical units.
time (UTC)temp
F
wind
direction
speed
MPH
gust
MPH
rain 1hr
in
rain 24hr
in
rain mn
in
humidity
%
barometer
mb
20260831114008 74 352 5.0 8.0 0.00 0.47 0.00 55 1013.2
20260831113508 71 1 6.0 9.0 0.00 0.47 0.00 60 1013.0
20260831113007 71 327 2.0 4.0 0.00 0.47 0.00 60 1013.1
20260831112522 72 328 4.0 7.0 0.00 0.47 0.00 58 1012.8
20260831112011 72 336 5.0 9.0 0.00 0.47 0.00 58 1012.6
20260831111511 71 318 6.0 8.0 0.00 0.47 0.00 61 1012.6
20260831111011 70 320 5.0 8.0 0.00 0.47 0.00 62 1012.7
20260831110510 70 291 5.0 8.0 0.00 0.47 0.00 61 1012.5
20260831110010 70 285 4.0 6.0 0.00 0.47 0.00 62 1012.7
20260831105509 70 272 7.0 11.0 0.00 0.47 0.00 61 1012.6
20260831105009 71 279 4.0 8.0 0.00 0.47 0.00 60 1012.5
20260831104508 72 291 6.0 8.0 0.00 0.47 0.00 55 1012.3
20260831104008 71 281 7.0 10.0 0.00 0.47 0.00 60 1012.2
20260831103508 70 299 4.0 8.0 0.00 0.47 0.00 62 1012.3
20260831103022 70 276 5.0 8.0 0.00 0.47 0.00 61 1012.3
20260831102512 70 283 5.0 8.0 0.00 0.47 0.00 60 1012.0
20260831102012 71 272 6.0 10.0 0.00 0.47 0.00 61 1012.1
20260831101512 70 296 4.0 5.0 0.00 0.47 0.00 62 1011.9
20260831101011 70 280 4.0 8.0 0.00 0.47 0.00 63 1011.9
20260831100511 69 263 4.0 7.0 0.00 0.48 0.00 63 1011.9
20260831100000 68 253 7.0 10.0 0.00 0.48 0.00 66 1011.7
20260831095515 67 298 7.0 9.0 0.00 0.48 0.00 68 1011.6
20260831095000 67 246 3.0 6.0 0.00 0.48 0.00 69 1011.8
20260831094514 67 291 4.0 6.0 0.00 0.48 0.00 70 1011.7
20260831094013 67 126 3.0 6.0 0.00 0.48 0.00 69 1011.7
20260831093513 68 300 4.0 4.0 0.00 0.48 0.00 66 1011.6
20260831093013 68 341 4.0 8.0 0.00 0.48 0.00 66 1011.4
20260831092512 68 313 2.0 4.0 0.00 0.48 0.00 70 1011.5
20260831091912 67 313 3.0 5.0 0.00 0.48 0.00 69 1011.3
20260831091412 68 325 4.0 5.0 0.00 0.48 0.00 70 1011.4
20260831090912 68 316 4.0 6.0 0.00 0.48 0.00 70 1011.2
20260831090311 67 329 6.0 9.0 0.00 0.48 0.00 70 1011.2
20260831085811 67 336 5.0 8.0 0.00 0.48 0.00 69 1011.0
20260831085310 69 320 4.0 6.0 0.00 0.48 0.00 69 1011.0
20260831084710 68 326 2.0 3.0 0.00 0.48 0.00 70 1010.8
20260831084210 67 331 4.0 7.0 0.00 0.48 0.00 70 1010.7
20260831083714 67 317 4.0 9.0 0.00 0.48 0.00 71 1010.7
20260831083119 67 318 5.0 8.0 0.00 0.48 0.00 72 1010.5
20260831082604 66 311 5.0 9.0 0.00 0.48 0.00 73 1010.4
20260831082118 65 267 4.0 5.0 0.00 0.48 0.00 74 1010.4
20260831081508 65 204 4.0 6.0 0.00 0.48 0.00 75 1010.2
20260831081008 64 183 4.0 7.0 0.00 0.48 0.00 77 1010.1
20260831080508 64 186 3.0 5.0 0.00 0.48 0.00 78 1010.0
20260831075907 63 216 4.0 7.0 0.00 0.48 0.00 81 1010.1
20260831075406 62 210 4.0 6.0 0.00 0.48 0.00 82 1009.9
20260831074906 62 266 2.0 3.0 0.00 0.48 0.00 82 1009.8
20260831074306 62 283 4.0 6.0 0.00 0.48 0.00 81 1009.8
20260831073805 62 323 3.0 6.0 0.00 0.48 0.00 81 1010.0
20260831073305 63 287 4.0 4.0 0.00 0.48 0.00 80 1009.7
20260831072720 63 242 3.0 4.0 0.00 0.48 0.00 80 1009.5
20260831072204 64 254 5.0 8.0 0.00 0.48 0.00 76 1009.6
20260831071704 64 191 3.0 4.0 0.00 0.48 0.00 78 1009.4
20260831071119 62 212 2.0 3.0 0.00 0.48 0.00 82 1009.4
20260831070604 62 235 3.0 5.0 0.00 0.48 0.00 84 1009.3
20260831070119 61 240 2.0 3.0 0.00 0.48 0.00 86 1009.3
20260831065518 60 245 2.0 2.0 0.00 0.48 0.00 90 1009.2
20260831065003 59 252 2.0 2.0 0.00 0.48 0.00 91 1009.2
20260831064503 58 261 3.0 4.0 0.00 0.48 0.00 93 1009.0
20260831063917 58 227 1.0 2.0 0.00 0.48 0.00 94 1008.9
20260831063402 57 221 3.0 5.0 0.00 0.48 0.00 94 1008.9
20260831062902 57 216 1.0 2.0 0.00 0.48 0.00 94 1008.8
20260831062401 56 225 1.0 2.0 0.00 0.48 0.00 94 1008.8
20260831061916 56 227 1.0 2.0 0.00 0.48 0.00 94 1008.8
20260831061421 56 223 2.0 2.0 0.00 0.48 0.00 94 1008.7
20260831060910 56 216 2.0 2.0 0.00 0.48 0.00 94 1008.7
20260831060410 56 212 1.0 1.0 0.00 0.48 0.00 94 1008.4
20260831055925 56 211 1.0 2.0 0.00 0.48 0.00 94 1008.5
20260831055359 56 203 1.0 2.0 0.00 0.48 0.00 94 1008.3
20260831054914 56 205 2.0 3.0 0.00 0.48 0.00 94 1008.1
20260831054403 56 218 2.0 3.0 0.00 0.48 0.00 94 1008.2
20260831053918 56 236 1.0 2.0 0.00 0.48 0.00 94 1008.3
20260831053402 55 227 2.0 3.0 0.00 0.48 0.00 94 1008.0
20260831052900 55 228 2.0 2.0 0.00 0.48 0.00 94 1007.8
20260831052400 55 243 3.0 4.0 0.00 0.48 0.00 93 1007.8
20260831051914 55 217 2.0 2.0 0.00 0.48 0.00 93 1008.0
20260831051414 55 213 1.0 2.0 0.00 0.48 0.00 93 1007.9
20260831050913 55 208 2.0 4.0 0.00 0.48 0.00 93 1007.6
20260831050413 56 228 1.0 2.0 0.00 0.48 0.00 93 1007.7
20260831045923 56 230 3.0 5.0 0.00 0.48 0.00 93 1007.6
20260831045413 56 233 2.0 2.0 0.00 0.48 0.00 93 1007.5
20260831044912 56 239 1.0 2.0 0.00 0.48 0.00 93 1007.5
20260831044412 56 244 2.0 3.0 0.00 0.48 0.00 92 1007.3
20260831043912 56 248 2.0 3.0 0.00 0.48 0.00 92 1007.3
20260831043412 56 231 1.0 2.0 0.00 0.48 0.00 92 1007.3
20260831042911 56 227 2.0 3.0 0.00 0.48 0.00 92 1007.1
20260831042411 56 227 2.0 3.0 0.00 0.48 0.00 92 1007.0
20260831041911 56 215 1.0 2.0 0.00 0.48 0.00 92 1007.1
20260831041410 56 214 3.0 4.0 0.00 0.48 0.00 92 1007.0
20260831040900 56 262 1.0 2.0 0.00 0.48 0.00 92 1007.0
20260831040400 56 260 1.0 2.0 0.00 0.48 0.00 92 1007.0
20260831035915 56 252 3.0 5.0 0.00 0.48 0.00 92 1007.2
20260831035359 56 277 2.0 5.0 0.00 0.48 0.00 92 1007.0
20260831034914 56 310 2.0 4.0 0.00 0.48 0.00 92 1007.2
20260831034413 56 305 4.0 5.0 0.00 0.48 0.00 92 1007.0
20260831033913 56 277 2.0 3.0 0.00 0.48 0.00 92 1007.0
20260831033412 56 315 1.0 2.0 0.00 0.48 0.00 92 1006.9
20260831032911 56 309 2.0 4.0 0.00 0.48 0.00 91 1006.7
20260831032411 56 302 3.0 5.0 0.01 0.48 0.00 91 1006.7
20260831031911 57 276 2.0 4.0 0.01 0.48 0.00 91 1006.7
20260831031410 57 262 2.0 3.0 0.01 0.48 0.00 91 1006.7
20260831030900 57 251 2.0 4.0 0.01 0.48 0.00 91 1006.9
20260831030359 57 249 4.0 5.0 0.01 0.48 0.00 90 1006.7
20260831025914 57 270 2.0 3.0 0.01 0.48 0.00 90 1006.8
20260831025414 57 273 4.0 6.0 0.01 0.48 0.00 90 1006.7
20260831024913 57 246 4.0 4.0 0.01 0.48 0.00 90 1006.8
20260831024413 57 265 2.0 3.0 0.01 0.48 0.00 89 1006.6
20260831023912 58 272 2.0 4.0 0.01 0.48 0.00 89 1006.7
20260831023412 58 254 2.0 4.0 0.01 0.48 0.00 89 1006.6
20260831022911 58 236 4.0 7.0 0.01 0.48 0.00 90 1006.4
20260831022411 58 248 3.0 5.0 0.00 0.47 0.00 90 1006.4
20260831021910 58 257 2.0 4.0 0.00 0.47 0.00 90 1006.4
20260831021410 58 235 4.0 5.0 0.00 0.47 0.00 90 1006.3
20260831020910 58 227 2.0 4.0 0.00 0.47 0.00 91 1006.2
20260831020409 59 250 4.0 7.0 0.00 0.47 0.00 92 1006.1
20260831015909 59 261 3.0 4.0 0.00 0.47 0.00 92 1006.2
20260831015409 59 257 4.0 5.0 0.00 0.47 0.00 92 1006.2
20260831014909 59 278 2.0 4.0 0.00 0.47 0.00 92 1006.0
20260831014408 59 295 5.0 8.0 0.00 0.47 0.00 93 1006.0
20260831013907 59 270 3.0 5.0 0.00 0.47 0.00 93 1006.1
20260831013422 59 245 3.0 4.0 0.00 0.47 0.00 93 1006.0
20260831012912 59 254 3.0 5.0 0.00 0.47 0.00 94 1006.1
20260831012411 59 245 2.0 4.0 0.00 0.47 0.00 94 1005.9
20260831011411 60 211 3.0 5.0 0.00 0.47 0.00 96 1006.1
20260831010906 60 233 4.0 5.0 0.02 0.47 0.00 96 1006.0
20260831010405 60 244 2.0 2.0 0.07 0.47 0.00 96 1006.0
20260831005920 60 251 1.0 2.0 0.07 0.47 0.00 96 1006.1
20260831005405 60 250 2.0 2.0 0.08 0.47 0.00 96 1005.9
20260831004904 60 251 2.0 4.0 0.08 0.47 0.00 96 1005.9
20260831004404 60 265 2.0 4.0 0.08 0.47 0.00 96 1005.8
20260831003919 60 217 1.0 2.0 0.08 0.47 0.00 96 1005.9
20260831003403 60 209 1.0 2.0 0.09 0.47 0.00 96 1005.8
20260831002918 60 212 2.0 3.0 0.09 0.47 0.00 96 1005.7
20260831002408 60 190 2.0 4.0 0.09 0.47 0.00 96 1005.8
20260831001907 60 202 2.0 2.0 0.11 0.47 0.00 96 1005.6
20260831001407 60 233 1.0 2.0 0.11 0.47 0.00 95 1005.5
20260831000906 60 254 2.0 3.0 0.08 0.45 0.00 95 1005.8
20260831000406 60 243 1.0 2.0 0.04 0.40 0.00 95 1005.9
20260830235906 60 209 0.0 1.0 0.04 0.40 0.00 94 1005.8
20260830235405 60 213 1.0 2.0 0.02 0.39 0.00 94 1006.0
20260830234905 60 221 1.0 2.0 0.02 0.39 0.00 94 1005.8
20260830234404 60 216 0.0 2.0 0.02 0.39 0.00 93 1006.0
20260830233904 60 214 4.0 6.0 0.02 0.39 0.00 93 1006.4
20260830233419 60 239 2.0 4.0 0.01 0.38 0.00 93 1006.4
20260830232903 60 245 2.0 4.0 0.01 0.38 0.00 93 1006.2
20260830232403 60 246 4.0 7.0 0.01 0.38 0.00 93 1006.3
20260830231917 60 215 3.0 4.0 0.00 0.37 0.00 93 1006.4
20260830231402 60 203 2.0 3.0 0.00 0.37 0.00 93 1006.4
20260830230901 60 223 2.0 2.0 0.00 0.37 0.00 93 1006.4
20260830230401 60 168 0.0 1.0 0.00 0.37 0.00 93 1006.4
20260830225913 60 168 2.0 7.0 0.00 0.37 0.00 93 1006.5
20260830225411 60 189 1.0 2.0 0.00 0.37 0.00 93 1006.4
20260830224925 60 199 2.0 2.0 0.00 0.37 0.00 93 1006.6
20260830224415 60 184 2.0 2.0 0.00 0.37 0.00 93 1006.7
20260830223915 60 218 4.0 4.0 0.00 0.37 0.00 92 1006.7
20260830223414 60 256 0.0 1.0 0.00 0.37 0.00 93 1006.8
20260830222914 60 252 2.0 3.0 0.00 0.37 0.00 93 1006.8
20260830222413 60 270 2.0 4.0 0.00 0.37 0.00 93 1006.7
20260830221913 60 293 2.0 4.0 0.00 0.37 0.00 93 1007.0
20260830221411 60 272 4.0 8.0 0.00 0.37 0.00 93 1007.1
20260830220910 61 238 3.0 4.0 0.00 0.37 0.00 93 1007.0
20260830220410 60 262 2.0 4.0 0.00 0.37 0.00 94 1007.1
20260830215910 60 271 4.0 7.0 0.00 0.37 0.00 94 1007.3
20260830215410 61 268 2.0 4.0 0.00 0.37 0.00 94 1007.2
20260830214909 61 252 3.0 4.0 0.00 0.37 0.00 94 1007.0
20260830214409 61 246 3.0 5.0 0.00 0.37 0.00 94 1007.1
20260830213909 61 252 5.0 7.0 0.00 0.37 0.00 94 1007.2
20260830213408 61 234 2.0 3.0 0.00 0.37 0.00 94 1007.3
20260830212908 61 219 2.0 3.0 0.01 0.37 0.00 95 1007.1
20260830212408 61 235 3.0 4.0 0.12 0.37 0.00 95 1007.3
20260830211922 61 238 2.0 4.0 0.14 0.37 0.00 95 1007.2
20260830211407 61 230 3.0 4.0 0.15 0.37 0.00 95 1007.5
20260830210907 61 235 3.0 4.0 0.22 0.37 0.00 95 1007.2
20260830210406 61 230 3.0 4.0 0.28 0.37 0.00 95 1007.2
20260830205920 61 231 3.0 5.0 0.32 0.37 0.00 95 1007.4
20260830205403 61 234 3.0 4.0 0.34 0.37 0.00 95 1007.2
20260830204903 61 244 4.0 4.0 0.35 0.37 0.00 95 1007.0
20260830204417 61 259 3.0 4.0 0.35 0.37 0.00 95 1007.0
20260830203922 61 251 2.0 3.0 0.35 0.37 0.00 94 1007.0
20260830203406 61 281 2.0 3.0 0.35 0.37 0.00 93 1007.2
20260830202906 62 302 2.0 3.0 0.34 0.35 0.00 92 1007.0
20260830202420 62 274 4.0 4.0 0.24 0.25 0.00 91 1007.1
20260830201910 62 270 1.0 2.0 0.21 0.22 0.00 90 1006.7
20260830201425 63 264 1.0 2.0 0.20 0.21 0.00 89 1007.0
20260830200915 63 249 1.0 2.0 0.13 0.14 0.00 87 1007.0
20260830200414 64 245 3.0 4.0 0.07 0.08 0.00 82 1007.2
20260830195919 64 225 2.0 3.0 0.04 0.05 0.00 80 1007.2
20260830195403 65 215 2.0 3.0 0.01 0.02 0.00 77 1007.1
20260830194903 65 221 2.0 2.0 0.00 0.01 0.00 75 1007.1
20260830194403 65 231 1.0 2.0 0.00 0.01 0.00 74 1007.1
20260830193917 66 234 4.0 5.0 0.00 0.01 0.00 73 1007.1
20260830193402 66 203 2.0 3.0 0.00 0.01 0.00 72 1007.2
20260830192901 66 185 3.0 6.0 0.00 0.01 0.00 72 1007.3
20260830192416 66 172 3.0 5.0 0.00 0.01 0.00 72 1007.2
20260830191930 66 175 3.0 4.0 0.00 0.01 0.00 71 1007.2
20260830191405 66 192 2.0 3.0 0.00 0.01 0.00 71 1007.4
20260830190905 66 192 4.0 6.0 0.00 0.01 0.00 71 1007.4
20260830190404 66 207 4.0 5.0 0.00 0.01 0.00 70 1007.5
20260830185919 66 223 2.0 2.0 0.00 0.01 0.00 70 1007.6
20260830185419 66 223 3.0 5.0 0.00 0.01 0.00 70 1007.6
20260830184908 66 205 4.0 7.0 0.00 0.01 0.00 70 1007.3
20260830184408 66 226 4.0 5.0 0.00 0.01 0.00 70 1007.6
20260830183922 67 245 4.0 6.0 0.00 0.01 0.00 69 1007.6
20260830183406 67 234 4.0 6.0 0.00 0.01 0.00 69 1007.7
20260830182906 67 236 2.0 5.0 0.00 0.01 0.00 69 1007.8
20260830182406 67 246 2.0 3.0 0.00 0.01 0.00 68 1007.7
20260830181920 67 263 4.0 6.0 0.00 0.01 0.00 67 1007.9
20260830181404 67 255 2.0 3.0 0.00 0.01 0.00 67 1007.8
20260830180904 68 266 4.0 7.0 0.00 0.01 0.00 66 1007.7
20260830180404 67 265 2.0 2.0 0.00 0.01 0.00 68 1007.9
20260830175918 67 268 4.0 8.0 0.00 0.01 0.00 68 1007.9
20260830175418 67 267 6.0 9.0 0.00 0.01 0.00 68 1008.0
20260830174923 67 265 2.0 4.0 0.00 0.01 0.00 67 1007.9
20260830174412 67 270 4.0 8.0 0.00 0.01 0.00 67 1008.0
20260830173917 68 255 8.0 9.0 0.00 0.01 0.00 66 1008.1
20260830173401 68 251 4.0 6.0 0.00 0.01 0.00 66 1008.2
20260830172901 68 269 4.0 7.0 0.00 0.01 0.00 65 1008.0
20260830172416 68 267 9.0 14.0 0.00 0.01 0.00 65 1008.0
20260830171914 69 250 6.0 8.0 0.00 0.01 0.00 64 1008.1
20260830171413 69 283 2.0 3.0 0.00 0.01 0.00 64 1008.0
20260830170912 69 290 7.0 14.0 0.00 0.01 0.00 64 1008.1
20260830170412 69 245 2.0 6.0 0.00 0.01 0.00 65 1008.2
20260830165912 69 219 2.0 5.0 0.00 0.01 0.00 65 1008.1
20260830165411 69 239 8.0 11.0 0.00 0.01 0.00 65 1008.3
20260830164911 69 272 6.0 8.0 0.00 0.01 0.00 64 1008.3
20260830164425 69 270 7.0 9.0 0.00 0.01 0.00 64 1008.3
20260830163915 69 242 2.0 4.0 0.00 0.01 0.00 64 1008.4
20260830163415 69 229 5.0 8.0 0.00 0.01 0.00 63 1008.5
20260830162915 70 230 2.0 4.0 0.00 0.01 0.00 63 1008.5
20260830162414 70 218 5.0 7.0 0.00 0.01 0.00 63 1008.4
20260830161914 70 219 2.0 4.0 0.00 0.01 0.00 63 1008.3
20260830161414 70 221 8.0 11.0 0.00 0.01 0.00 62 1008.5
20260830160901 71 236 4.0 6.0 0.00 0.01 0.00 62 1008.4
20260830160416 70 237 8.0 11.0 0.00 0.01 0.00 62 1008.4
20260830155920 70 282 4.0 7.0 0.00 0.01 0.00 62 1008.6
20260830155425 69 304 5.0 8.0 0.00 0.01 0.00 62 1008.6
20260830154920 69 265 5.0 8.0 0.00 0.01 0.00 62 1008.6
20260830154409 70 290 11.0 13.0 0.00 0.01 0.00 61 1008.6
20260830153909 70 204 4.0 8.0 0.00 0.01 0.00 61 1008.7
20260830153409 70 224 8.0 10.0 0.00 0.01 0.00 62 1008.8
20260830152908 70 194 5.0 8.0 0.00 0.02 0.00 61 1008.7
20260830152408 71 185 4.0 6.0 0.00 0.04 0.00 60 1008.8
20260830151921 71 164 7.0 11.0 0.00 0.04 0.00 60 1008.7
20260830151405 72 205 7.0 11.0 0.00 0.04 0.00 60 1008.8
20260830150905 72 255 5.0 11.0 0.00 0.05 0.00 60 1008.9
20260830150405 72 273 4.0 5.0 0.00 0.08 0.00 62 1009.0
20260830145919 71 267 8.0 10.0 0.00 0.08 0.00 63 1009.1
20260830145419 70 225 5.0 10.0 0.00 0.08 0.00 64 1008.9
20260830144924 70 209 4.0 7.0 0.00 0.08 0.00 63 1009.0
20260830144413 70 211 5.0 8.0 0.00 0.08 0.00 62 1009.1
20260830143913 71 192 8.0 15.0 0.00 0.08 0.00 60 1009.2
20260830143412 72 217 8.0 10.0 0.00 0.08 0.00 57 1009.1
20260830142912 72 210 8.0 17.0 0.00 0.08 0.00 54 1009.2
20260830142402 74 232 8.0 13.0 0.00 0.08 0.00 53 1009.2
20260830141916 74 248 7.0 13.0 0.00 0.08 0.00 51 1009.0
20260830141401 74 230 4.0 7.0 0.00 0.08 0.00 52 1009.0
20260830140915 74 262 11.0 16.0 0.00 0.08 0.00 51 1008.8
20260830140415 73 334 5.0 8.0 0.00 0.08 0.00 55 1009.0
20260830135915 71 307 6.0 9.0 0.00 0.08 0.00 60 1009.1
20260830135414 71 295 7.0 10.0 0.00 0.08 0.00 60 1009.0
20260830134912 72 260 5.0 8.0 0.00 0.09 0.00 61 1008.9
20260830134409 73 261 3.0 4.0 0.00 0.09 0.00 57 1009.0
20260830133909 74 256 5.0 8.0 0.00 0.09 0.00 56 1008.9
20260830133409 75 246 3.0 5.0 0.00 0.09 0.00 54 1009.0
20260830132908 75 253 4.0 5.0 0.00 0.11 0.00 55 1009.1
20260830132408 73 276 4.0 7.0 0.00 0.14 0.00 58 1009.2
20260830131908 73 268 5.0 7.0 0.00 0.18 0.00 55 1009.2
20260830131407 74 233 3.0 4.0 0.00 0.18 0.00 55 1009.2
20260830130907 74 223 4.0 7.0 0.00 0.18 0.00 55 1009.5
20260830130407 74 207 2.0 4.0 0.00 0.18 0.00 55 1009.4
20260830125921 74 214 4.0 6.0 0.00 0.18 0.00 55 1009.6
20260830125405 74 206 4.0 5.0 0.00 0.18 0.00 54 1009.5
20260830124905 74 193 4.0 7.0 0.00 0.18 0.00 56 1009.6
20260830124405 72 217 4.0 6.0 0.00 0.18 0.00 64 1009.6
20260830123917 71 246 3.0 4.0 0.00 0.18 0.00 68 1009.8
20260830123402 70 231 3.0 4.0 0.00 0.18 0.00 68 1009.8
20260830122902 71 232 4.0 6.0 0.00 0.18 0.00 69 1009.9
20260830122401 70 247 4.0 5.0 0.00 0.18 0.00 70 1010.0
20260830121915 69 267 7.0 8.0 0.00 0.18 0.00 70 1010.0
20260830121415 68 216 3.0 4.0 0.00 0.18 0.00 70 1010.1
20260830120915 70 214 4.0 7.0 0.00 0.18 0.00 68 1010.1
20260830120415 72 197 6.0 9.0 0.00 0.18 0.00 61 1009.9
20260830115914 72 181 4.0 6.0 0.00 0.18 0.00 56 1009.9
20260830115414 74 189 5.0 10.0 0.00 0.18 0.00 54 1009.8
20260830114914 74 186 7.0 10.0 0.00 0.19 0.00 57 1009.9